Terminal Aerodrome Forecast
Issued by NWS Jackson, KY

Home | Current Version | Previous Version | Text Only | Print | Product List | Glossary On
Versions: 1 2 3 4 5 6 7 8 9 10 11 12 13 14 15
000
FTUS43 KJKL 201728 AAB
TAFJKL
TAF AMD
KJKL 201728Z 2017/2118 23008KT P6SM OVC030
     FM210900 VRB05KT 6SM -SHRA BKN030
     FM211600 20007KT 5SM -SHRA BKN035=

USA.gov is the U.S. government's official web portal to all federal, state and local government web resources and services.